Time,TemperatureF,DewpointF,PressureIn,WindDirection,WindDirectionDegrees,WindSpeedMPH,WindSpeedGustMPH,Humidity,HourlyPrecipIn,Conditions,Clouds,dailyrainin,SoftwareType,DateUTC
2013-01-28 00:03:00,36.5,37.0,29.98,West,274,0.0,1.0,100,0.00,,,0.00,weatherlink.com 1.10,2013-01-28 08:03:00,
2013-01-28 00:18:00,36.5,37.0,29.97,West,274,0.0,1.0,100,0.00,,,0.00,weatherlink.com 1.10,2013-01-28 08:18:00,
2013-01-28 00:33:00,36.6,36.0,29.98,West,274,0.0,2.0,99,0.00,,,0.00,weatherlink.com 1.10,2013-01-28 08:33:00,
2013-01-28 00:48:00,36.7,37.0,29.98,SW,220,0.0,4.0,99,0.01,,,0.01,weatherlink.com 1.10,2013-01-28 08:48:00,
2013-01-28 01:03:00,36.7,37.0,29.97,SW,220,0.0,1.0,100,0.01,,,0.01,weatherlink.com 1.10,2013-01-28 09:03:00,
2013-01-28 01:18:00,36.7,37.0,29.97,SW,220,0.0,1.0,100,0.01,,,0.01,weatherlink.com 1.10,2013-01-28 09:18:00,
2013-01-28 01:33:00,36.7,37.0,29.98,WSW,249,1.0,4.0,100,0.01,,,0.01,weatherlink.com 1.10,2013-01-28 09:33:00,
2013-01-28 01:48:00,36.7,37.0,29.97,West,275,0.0,2.0,100,0.00,,,0.01,weatherlink.com 1.10,2013-01-28 09:48:00,
2013-01-28 02:03:00,36.5,36.0,29.98,West,275,2.0,2.0,99,0.00,,,0.01,weatherlink.com 1.10,2013-01-28 10:03:00,
2013-01-28 02:18:00,36.1,36.0,29.97,West,279,0.0,4.0,100,0.00,,,0.01,weatherlink.com 1.10,2013-01-28 10:18:00,
2013-01-28 02:33:00,35.6,35.0,29.97,West,279,0.0,2.0,99,0.00,,,0.01,weatherlink.com 1.10,2013-01-28 10:33:00,
2013-01-28 02:48:00,35.2,35.0,29.97,NW,319,0.0,4.0,99,0.01,,,0.02,weatherlink.com 1.10,2013-01-28 10:48:00,
2013-01-28 03:03:00,34.9,35.0,29.97,NW,319,1.0,2.0,99,0.01,,,0.02,weatherlink.com 1.10,2013-01-28 11:03:00,
2013-01-28 03:18:00,34.7,35.0,29.98,NW,319,1.0,1.0,99,0.01,,,0.02,weatherlink.com 1.10,2013-01-28 11:18:00,
2013-01-28 03:33:00,34.5,34.0,29.98,NW,319,0.0,2.0,99,0.01,,,0.02,weatherlink.com 1.10,2013-01-28 11:33:00,
2013-01-28 03:48:00,34.3,34.0,29.98,NW,320,0.0,2.0,99,0.00,,,0.02,weatherlink.com 1.10,2013-01-28 11:48:00,
2013-01-28 04:03:00,34.2,34.0,29.98,NNE,12,2.0,3.0,99,0.00,,,0.02,weatherlink.com 1.10,2013-01-28 12:03:00,
2013-01-28 04:18:00,34.2,34.0,29.98,NNW,346,3.0,4.0,99,0.00,,,0.02,weatherlink.com 1.10,2013-01-28 12:18:00,
2013-01-28 04:33:00,34.2,34.0,29.98,NE,34,1.0,4.0,99,0.00,,,0.02,weatherlink.com 1.10,2013-01-28 12:33:00,
2013-01-28 04:48:00,34.2,34.0,29.98,NNE,19,1.0,5.0,99,0.00,,,0.02,weatherlink.com 1.10,2013-01-28 12:48:00,
2013-01-28 05:03:00,34.2,34.0,29.99,NW,325,0.0,2.0,99,0.00,,,0.02,weatherlink.com 1.10,2013-01-28 13:03:00,
2013-01-28 05:18:00,34.1,34.0,29.99,NW,319,1.0,3.0,99,0.00,,,0.02,weatherlink.com 1.10,2013-01-28 13:18:00,
2013-01-28 05:33:00,33.8,34.0,29.99,NNE,19,2.0,5.0,99,0.00,,,0.02,weatherlink.com 1.10,2013-01-28 13:33:00,
2013-01-28 05:48:00,33.8,34.0,29.99,North,360,0.0,5.0,99,0.00,,,0.02,weatherlink.com 1.10,2013-01-28 13:48:00,
2013-01-28 06:04:00,33.8,34.0,30.00,NNE,17,0.0,4.0,99,0.00,,,0.02,weatherlink.com 1.10,2013-01-28 14:04:00,
2013-01-28 06:19:00,33.9,34.0,30.00,NNE,17,0.0,2.0,99,0.01,,,0.03,weatherlink.com 1.10,2013-01-28 14:19:00,
2013-01-28 06:34:00,33.8,34.0,30.00,North,355,0.0,3.0,99,0.01,,,0.03,weatherlink.com 1.10,2013-01-28 14:34:00,
2013-01-28 06:49:00,33.7,34.0,30.00,North,355,0.0,2.0,99,0.01,,,0.03,weatherlink.com 1.10,2013-01-28 14:49:00,
2013-01-28 07:04:00,33.8,34.0,30.00,North,355,2.0,2.0,99,0.01,,,0.03,weatherlink.com 1.10,2013-01-28 15:04:00,
2013-01-28 07:19:00,33.8,34.0,30.00,North,355,0.0,2.0,99,0.00,,,0.03,weatherlink.com 1.10,2013-01-28 15:19:00,
2013-01-28 07:34:00,33.9,34.0,30.00,North,355,0.0,1.0,99,0.00,,,0.03,weatherlink.com 1.10,2013-01-28 15:34:00,
2013-01-28 07:49:00,33.9,34.0,30.00,North,355,0.0,1.0,99,0.00,,,0.03,weatherlink.com 1.10,2013-01-28 15:49:00,
2013-01-28 08:04:00,34.0,34.0,30.00,North,355,0.0,2.0,99,0.00,,,0.03,weatherlink.com 1.10,2013-01-28 16:04:00,
2013-01-28 08:19:00,34.0,34.0,30.00,North,355,0.0,2.0,99,0.00,,,0.03,weatherlink.com 1.10,2013-01-28 16:19:00,
2013-01-28 08:34:00,34.0,34.0,30.00,North,355,0.0,2.0,99,0.01,,,0.04,weatherlink.com 1.10,2013-01-28 16:34:00,
2013-01-28 08:49:00,34.0,34.0,30.00,North,355,0.0,0.0,99,0.01,,,0.04,weatherlink.com 1.10,2013-01-28 16:49:00,
2013-01-28 09:04:00,34.1,34.0,30.00,North,355,0.0,2.0,99,0.01,,,0.04,weatherlink.com 1.10,2013-01-28 17:04:00,
2013-01-28 09:19:00,34.3,34.0,30.00,North,355,2.0,2.0,99,0.01,,,0.04,weatherlink.com 1.10,2013-01-28 17:19:00,
2013-01-28 09:49:00,34.7,35.0,30.01,North,355,0.0,1.0,100,0.00,,,0.04,weatherlink.com 1.10,2013-01-28 17:49:00,
2013-01-28 10:04:00,35.1,35.0,30.01,North,355,0.0,3.0,100,0.00,,,0.04,weatherlink.com 1.10,2013-01-28 18:04:00,
2013-01-28 10:19:00,35.6,35.0,30.01,South,185,0.0,5.0,99,0.00,,,0.04,weatherlink.com 1.10,2013-01-28 18:19:00,
2013-01-28 10:34:00,36.1,36.0,30.01,NW,314,1.0,2.0,99,0.00,,,0.04,weatherlink.com 1.10,2013-01-28 18:34:00,
2013-01-28 10:49:00,36.3,36.0,30.03,NW,326,1.0,4.0,98,0.00,,,0.04,weatherlink.com 1.10,2013-01-28 18:49:00,
2013-01-28 11:04:00,36.5,36.0,30.03,WNW,290,0.0,1.0,97,0.00,,,0.04,weatherlink.com 1.10,2013-01-28 19:04:00,
2013-01-28 11:19:00,36.6,36.0,30.03,East,92,0.0,3.0,97,0.00,,,0.04,weatherlink.com 1.10,2013-01-28 19:19:00,
2013-01-28 11:34:00,36.4,35.0,30.02,ENE,68,1.0,3.0,96,0.00,,,0.04,weatherlink.com 1.10,2013-01-28 19:34:00,
2013-01-28 11:49:00,36.4,35.0,30.02,WSW,252,1.0,3.0,96,0.00,,,0.04,weatherlink.com 1.10,2013-01-28 19:49:00,
2013-01-28 12:04:00,36.4,35.0,30.02,WNW,284,1.0,2.0,96,0.01,,,0.05,weatherlink.com 1.10,2013-01-28 20:04:00,
2013-01-28 12:19:00,36.3,35.0,30.02,North,5,0.0,3.0,96,0.01,,,0.05,weatherlink.com 1.10,2013-01-28 20:19:00,
2013-01-28 12:34:00,36.2,35.0,30.02,WNW,290,0.0,2.0,96,0.01,,,0.05,weatherlink.com 1.10,2013-01-28 20:34:00,
2013-01-28 12:49:00,36.3,36.0,30.01,WNW,290,1.0,2.0,97,0.01,,,0.05,weatherlink.com 1.10,2013-01-28 20:49:00,
2013-01-28 13:04:00,36.4,36.0,30.00,WNW,290,0.0,1.0,97,0.00,,,0.05,weatherlink.com 1.10,2013-01-28 21:04:00,
2013-01-28 13:19:00,36.6,36.0,30.00,WNW,290,0.0,3.0,98,0.00,,,0.05,weatherlink.com 1.10,2013-01-28 21:19:00,
2013-01-28 13:34:00,36.7,36.0,29.99,WNW,290,1.0,1.0,98,0.00,,,0.05,weatherlink.com 1.10,2013-01-28 21:34:00,
2013-01-28 13:49:00,36.9,36.0,29.99,WNW,290,0.0,2.0,98,0.01,,,0.06,weatherlink.com 1.10,2013-01-28 21:49:00,
2013-01-28 14:04:00,36.9,36.0,29.98,NW,311,0.0,2.0,98,0.01,,,0.06,weatherlink.com 1.10,2013-01-28 22:04:00,
2013-01-28 14:19:00,36.9,36.0,29.99,NW,311,0.0,2.0,97,0.01,,,0.06,weatherlink.com 1.10,2013-01-28 22:19:00,
2013-01-28 14:34:00,36.9,36.0,29.98,NW,311,0.0,2.0,97,0.01,,,0.06,weatherlink.com 1.10,2013-01-28 22:34:00,
2013-01-28 14:49:00,36.9,36.0,29.98,NW,311,0.0,2.0,97,0.00,,,0.06,weatherlink.com 1.10,2013-01-28 22:49:00,
2013-01-28 15:04:00,36.8,36.0,29.98,North,5,2.0,2.0,97,0.00,,,0.06,weatherlink.com 1.10,2013-01-28 23:04:00,
2013-01-28 15:19:00,36.7,36.0,29.98,North,5,1.0,1.0,97,0.00,,,0.06,weatherlink.com 1.10,2013-01-28 23:19:00,
2013-01-28 15:34:00,36.5,36.0,29.98,North,5,0.0,1.0,97,0.00,,,0.06,weatherlink.com 1.10,2013-01-28 23:34:00,
2013-01-28 15:49:00,36.4,36.0,29.98,North,5,0.0,3.0,97,0.00,,,0.06,weatherlink.com 1.10,2013-01-28 23:49:00,
2013-01-28 16:04:00,36.2,36.0,29.98,North,5,0.0,0.0,97,0.00,,,0.06,weatherlink.com 1.10,2013-01-29 00:04:00,
2013-01-28 16:19:00,36.1,35.0,29.98,North,5,0.0,2.0,97,0.01,,,0.07,weatherlink.com 1.10,2013-01-29 00:19:00,
2013-01-28 16:34:00,36.1,35.0,29.98,North,5,0.0,0.0,97,0.01,,,0.07,weatherlink.com 1.10,2013-01-29 00:34:00,
2013-01-28 16:49:00,36.1,36.0,29.99,North,5,0.0,0.0,98,0.01,,,0.07,weatherlink.com 1.10,2013-01-29 00:49:00,
2013-01-28 17:04:00,36.1,36.0,29.99,North,5,0.0,0.0,98,0.01,,,0.07,weatherlink.com 1.10,2013-01-29 01:04:00,
2013-01-28 17:19:00,36.1,36.0,29.98,North,5,0.0,1.0,98,0.00,,,0.07,weatherlink.com 1.10,2013-01-29 01:19:00,
2013-01-28 17:34:00,36.1,36.0,29.99,North,5,0.0,1.0,98,0.00,,,0.07,weatherlink.com 1.10,2013-01-29 01:34:00,
2013-01-28 17:49:00,36.1,36.0,29.98,North,10,0.0,2.0,99,0.01,,,0.08,weatherlink.com 1.10,2013-01-29 01:49:00,
2013-01-28 18:04:00,36.1,36.0,29.98,North,10,0.0,2.0,99,0.01,,,0.08,weatherlink.com 1.10,2013-01-29 02:04:00,
2013-01-28 18:19:00,36.2,36.0,29.98,NNE,14,0.0,3.0,99,0.01,,,0.08,weatherlink.com 1.10,2013-01-29 02:19:00,
2013-01-28 18:34:00,36.4,36.0,29.98,NNE,14,0.0,3.0,99,0.01,,,0.08,weatherlink.com 1.10,2013-01-29 02:34:00,
2013-01-28 18:49:00,36.5,36.0,29.99,East,90,0.0,3.0,99,0.00,,,0.08,weatherlink.com 1.10,2013-01-29 02:49:00,
2013-01-28 19:04:00,36.5,36.0,29.99,ENE,74,0.0,3.0,99,0.00,,,0.08,weatherlink.com 1.10,2013-01-29 03:04:00,
2013-01-28 19:19:00,36.6,36.0,29.99,NNE,32,0.0,4.0,99,0.00,,,0.08,weatherlink.com 1.10,2013-01-29 03:19:00,
2013-01-28 19:34:00,36.7,37.0,29.99,NE,53,1.0,3.0,99,0.00,,,0.08,weatherlink.com 1.10,2013-01-29 03:34:00,
2013-01-28 19:49:00,36.7,37.0,29.99,NNE,31,0.0,2.0,99,0.00,,,0.08,weatherlink.com 1.10,2013-01-29 03:49:00,
2013-01-28 20:05:00,36.8,37.0,29.99,East,91,0.0,5.0,99,0.00,,,0.08,weatherlink.com 1.10,2013-01-29 04:05:00,
2013-01-28 20:20:00,36.9,37.0,29.99,ENE,73,0.0,4.0,99,0.01,,,0.09,weatherlink.com 1.10,2013-01-29 04:20:00,
2013-01-28 20:35:00,37.0,37.0,29.99,NE,38,0.0,3.0,99,0.01,,,0.09,weatherlink.com 1.10,2013-01-29 04:35:00,
2013-01-28 20:50:00,37.0,37.0,30.00,ENE,60,0.0,2.0,99,0.01,,,0.09,weatherlink.com 1.10,2013-01-29 04:50:00,
2013-01-28 21:05:00,37.0,37.0,30.00,ENE,63,0.0,2.0,99,0.01,,,0.09,weatherlink.com 1.10,2013-01-29 05:05:00,
2013-01-28 21:20:00,37.0,37.0,29.99,South,169,0.0,3.0,99,0.00,,,0.09,weatherlink.com 1.10,2013-01-29 05:20:00,
2013-01-28 21:35:00,37.0,37.0,30.00,East,89,0.0,2.0,99,0.00,,,0.09,weatherlink.com 1.10,2013-01-29 05:35:00,
2013-01-28 21:50:00,36.9,37.0,30.00,West,274,3.0,3.0,99,0.00,,,0.09,weatherlink.com 1.10,2013-01-29 05:50:00,
2013-01-28 22:05:00,36.9,37.0,30.00,WNW,297,0.0,2.0,99,0.01,,,0.10,weatherlink.com 1.10,2013-01-29 06:05:00,
2013-01-28 22:20:00,36.8,37.0,30.01,NE,53,1.0,2.0,99,0.01,,,0.10,weatherlink.com 1.10,2013-01-29 06:20:00,
2013-01-28 22:35:00,36.8,37.0,30.01,South,188,0.0,6.0,99,0.01,,,0.10,weatherlink.com 1.10,2013-01-29 06:35:00,
2013-01-28 22:50:00,36.8,37.0,30.01,WSW,258,0.0,5.0,99,0.01,,,0.10,weatherlink.com 1.10,2013-01-29 06:50:00,
2013-01-28 23:05:00,36.7,37.0,30.02,WSW,241,0.0,3.0,99,0.00,,,0.10,weatherlink.com 1.10,2013-01-29 07:05:00,
2013-01-28 23:20:00,36.6,36.0,30.02,WSW,252,3.0,5.0,99,0.00,,,0.10,weatherlink.com 1.10,2013-01-29 07:20:00,
2013-01-28 23:35:00,36.4,36.0,30.02,West,275,0.0,4.0,99,0.00,,,0.10,weatherlink.com 1.10,2013-01-29 07:35:00,
2013-01-28 23:50:00,36.3,36.0,30.03,West,275,1.0,2.0,99,0.00,,,0.10,weatherlink.com 1.10,2013-01-29 07:50:00,